Location: Barrialito
(10.1025°N, 66.8154°W)
Time: 16:59:21
(UTC+00:00)

FALCON 9 R/B - Visible Passes

Search period start: 03 December 2024 00:00
Search period end: 13 December 2024 00:00
Orbit: 282 x 9552 km, 34.5° (Epoch: 02 December)

Date Brightness Start Highest point End Pass type
(mag) Time Alt. Az. Time Alt. Az. Time Alt. Az.
03 Dec 6.7 00:28:12 10° SW 00:37:37 17° S 00:57:09 10° SSE visible
03 Dec 7.7 04:14:07 10° SSW 05:08:40 29° SSE 05:57:16 10° E visible
03 Dec 6.6 08:09:22 10° SW 09:22:08 73° SE 09:43:13 10° ENE visible
03 Dec 6.4 23:37:58 10° SW 23:45:00 17° S 23:59:11 10° SSE visible
04 Dec 7.5 03:21:44 10° SSW 04:02:54 23° SSE 04:56:23 10° ESE visible
04 Dec 7.0 07:12:20 10° SW 08:27:04 63° SE 08:53:32 10° ENE visible
04 Dec 5.9 22:48:07 10° SW 22:53:33 18° S 23:04:28 10° SSE visible
05 Dec 7.4 02:29:56 10° SSW 02:56:51 19° SSE 03:46:31 10° ESE visible
05 Dec 7.3 06:16:49 10° SW 07:30:09 53° SE 08:02:55 10° ENE visible
06 Dec 7.2 01:38:35 10° SSW 01:54:47 16° S 02:27:20 10° SE visible
06 Dec 7.6 05:22:35 10° SSW 06:31:24 45° SE 07:10:58 10° E visible
06 Dec 6.0 09:23:50 10° SW 10:29:58 78° NW 10:46:20 10° NE visible
07 Dec 7.0 00:47:33 10° SSW 00:57:02 13° S 01:13:27 10° SSE visible
07 Dec 7.7 04:29:24 10° SSW 05:30:44 37° SE 06:17:00 10° E visible
07 Dec 6.3 08:23:34 10° SW 09:36:40 89° SE 09:57:06 10° NE visible
07 Dec 6.7 23:56:40 10° SSW 00:02:10 12° S 00:10:18 10° SSE visible
08 Dec 7.6 03:37:04 10° SSW 04:27:54 29° SE 05:19:43 10° E visible
08 Dec 6.7 07:25:32 10° SW 08:41:41 77° SE 09:07:17 10° ENE visible
08 Dec 6.4 23:05:46 10° SSW 23:09:07 11° S 23:13:36 10° SSE visible
09 Dec 7.5 02:45:27 10° SSW 03:22:54 23° SSE 04:16:23 10° ESE visible
09 Dec 7.0 06:29:21 10° SW 07:44:54 66° SE 08:16:42 10° ENE visible
09 Dec 6.0 22:14:43 10° SSW 22:17:11 11° S 22:20:25 10° S visible
10 Dec 7.3 01:54:34 10° SSW 02:17:55 17° SSE 03:01:36 10° ESE visible
10 Dec 7.3 05:34:40 10° SW 06:46:25 56° SE 07:25:04 10° ENE visible
10 Dec 5.9 09:38:15 10° WSW 10:41:58 63° NW 10:58:12 10° NE visible
11 Dec 7.2 01:04:41 10° S 01:16:20 13° SSE 01:35:54 10° SE visible
11 Dec 7.5 04:41:10 10° SSW 05:46:27 47° SE 06:31:57 10° ENE visible
11 Dec 6.2 08:35:59 10° SW 09:48:21 76° NW 10:08:37 10° NE visible
12 Dec 7.6 03:48:37 10° SSW 04:45:08 38° SE 05:36:31 10° E visible
12 Dec 6.5 07:36:35 10° SW 08:53:08 89° NW 09:18:29 10° NE visible
